GEFSNGP_prec_meanprecacc_240.txt.gz
Total_Precipitation_Accumulation
0.39 0.37 0.43 0.48 0.40 0.41 0.57 0.59 0.50 0.29 0.25 0.28 0.23 0.18 0.17 0.15 0.13 0.14 0.17 0.16 0.15 0.16 0.18 0.21 0.26 0.30 0.30 0.32 0.37 0.46 0.61 0.72 0.78 0.84 0.94 1.00 1.03 1.05 1.10 1.24 1.33 1.34 1.37 1.39
0.34 0.23 0.29 0.34 0.25 0.26 0.29 0.28 0.30 0.25 0.28 0.29 0.23 0.18 0.16 0.16 0.15 0.15 0.18 0.16 0.16 0.17 0.20 0.22 0.25 0.29 0.27 0.29 0.35 0.44 0.59 0.66 0.74 0.87 0.99 1.11 1.14 1.19 1.21 1.26 1.35 1.37 1.35 1.36
0.56 0.26 0.44 0.52 0.29 0.24 0.26 0.24 0.25 0.31 0.32 0.26 0.24 0.20 0.18 0.17 0.17 0.16 0.14 0.15 0.15 0.18 0.22 0.24 0.26 0.26 0.27 0.28 0.32 0.38 0.51 0.62 0.68 0.82 0.95 1.05 1.08 1.12 1.16 1.10 1.09 1.19 1.26 1.21
0.86 0.63 0.88 0.45 0.22 0.20 0.23 0.25 0.25 0.28 0.28 0.25 0.26 0.24 0.20 0.17 0.17 0.14 0.13 0.14 0.15 0.17 0.19 0.21 0.25 0.26 0.26 0.26 0.29 0.37 0.46 0.58 0.61 0.71 0.85 0.92 0.98 1.03 1.04 0.97 0.95 1.05 1.09 1.00
1.19 0.89 0.51 0.24 0.19 0.24 0.30 0.37 0.29 0.25 0.25 0.24 0.23 0.24 0.27 0.23 0.17 0.14 0.12 0.13 0.14 0.15 0.15 0.17 0.21 0.25 0.25 0.25 0.28 0.33 0.40 0.50 0.56 0.64 0.79 0.80 0.87 0.97 0.96 0.97 0.94 0.92 0.91 0.86
1.32 0.99 0.51 0.26 0.15 0.18 0.28 0.47 0.28 0.22 0.25 0.26 0.24 0.37 0.36 0.30 0.22 0.17 0.13 0.12 0.14 0.14 0.13 0.15 0.17 0.19 0.20 0.21 0.25 0.32 0.39 0.45 0.49 0.54 0.68 0.69 0.71 0.77 0.82 0.84 0.86 0.87 0.85 0.79
1.08 0.83 0.40 0.22 0.17 0.20 0.50 0.60 0.28 0.22 0.23 0.25 0.30 0.38 0.34 0.28 0.24 0.19 0.17 0.16 0.15 0.15 0.16 0.16 0.17 0.18 0.18 0.18 0.21 0.27 0.33 0.39 0.44 0.48 0.55 0.57 0.61 0.65 0.70 0.74 0.78 0.83 0.83 0.77
0.80 0.88 0.49 0.23 0.24 0.43 0.53 0.31 0.22 0.21 0.21 0.23 0.22 0.20 0.21 0.23 0.23 0.20 0.20 0.20 0.18 0.18 0.17 0.17 0.17 0.17 0.16 0.17 0.20 0.24 0.31 0.37 0.41 0.46 0.48 0.51 0.55 0.60 0.62 0.70 0.80 0.83 0.81 0.79
0.58 0.53 0.37 0.26 0.31 0.34 0.26 0.21 0.18 0.20 0.21 0.21 0.20 0.19 0.20 0.20 0.20 0.19 0.19 0.19 0.19 0.19 0.20 0.19 0.18 0.18 0.16 0.16 0.20 0.25 0.31 0.35 0.42 0.45 0.43 0.50 0.56 0.63 0.66 0.72 0.81 0.84 0.80 0.77
0.35 0.28 0.22 0.21 0.22 0.21 0.19 0.17 0.16 0.17 0.20 0.19 0.19 0.18 0.18 0.18 0.18 0.20 0.19 0.17 0.16 0.18 0.20 0.20 0.18 0.17 0.16 0.16 0.20 0.25 0.30 0.34 0.40 0.47 0.48 0.47 0.53 0.61 0.66 0.70 0.84 0.90 0.87 0.84
0.29 0.20 0.17 0.16 0.16 0.17 0.16 0.13 0.12 0.13 0.15 0.15 0.15 0.15 0.16 0.19 0.19 0.20 0.20 0.18 0.16 0.17 0.18 0.19 0.17 0.15 0.14 0.17 0.22 0.26 0.29 0.33 0.39 0.48 0.52 0.48 0.50 0.56 0.63 0.65 0.85 1.02 0.96 0.96
0.25 0.16 0.17 0.15 0.12 0.11 0.12 0.12 0.11 0.13 0.15 0.13 0.13 0.16 0.17 0.18 0.19 0.18 0.18 0.18 0.17 0.15 0.16 0.16 0.15 0.14 0.15 0.17 0.23 0.30 0.34 0.37 0.41 0.49 0.52 0.50 0.50 0.55 0.62 0.65 0.72 0.76 0.83 0.93
0.18 0.14 0.13 0.10 0.08 0.08 0.11 0.12 0.11 0.12 0.15 0.16 0.13 0.14 0.18 0.19 0.19 0.19 0.17 0.17 0.18 0.17 0.15 0.15 0.14 0.15 0.16 0.19 0.24 0.31 0.38 0.42 0.46 0.50 0.51 0.52 0.50 0.53 0.60 0.58 0.60 0.64 0.70 0.78
0.13 0.13 0.13 0.08 0.08 0.07 0.09 0.11 0.10 0.09 0.10 0.13 0.15 0.15 0.18 0.20 0.19 0.19 0.18 0.17 0.17 0.17 0.15 0.14 0.13 0.15 0.17 0.21 0.26 0.33 0.38 0.44 0.49 0.51 0.51 0.50 0.48 0.50 0.55 0.61 0.67 0.69 0.74 0.81
0.12 0.12 0.13 0.09 0.07 0.06 0.07 0.08 0.10 0.10 0.10 0.10 0.13 0.15 0.18 0.20 0.19 0.17 0.17 0.16 0.15 0.15 0.15 0.15 0.16 0.16 0.18 0.23 0.28 0.34 0.41 0.45 0.50 0.51 0.50 0.46 0.45 0.48 0.51 0.56 0.64 0.74 0.81 0.88
0.13 0.10 0.09 0.08 0.07 0.07 0.08 0.10 0.12 0.12 0.12 0.13 0.12 0.14 0.17 0.19 0.20 0.19 0.18 0.17 0.17 0.16 0.17 0.18 0.18 0.19 0.20 0.25 0.31 0.37 0.45 0.54 0.58 0.55 0.52 0.48 0.47 0.51 0.53 0.57 0.64 0.71 0.80 0.86
0.18 0.14 0.11 0.11 0.09 0.09 0.10 0.12 0.14 0.14 0.13 0.13 0.14 0.14 0.16 0.19 0.21 0.20 0.19 0.19 0.20 0.19 0.18 0.19 0.21 0.22 0.23 0.28 0.36 0.44 0.49 0.53 0.59 0.58 0.56 0.55 0.57 0.58 0.59 0.63 0.68 0.71 0.75 0.85
0.18 0.17 0.15 0.15 0.14 0.14 0.12 0.11 0.12 0.13 0.14 0.15 0.15 0.16 0.18 0.21 0.25 0.25 0.24 0.23 0.22 0.20 0.20 0.22 0.26 0.27 0.26 0.32 0.41 0.47 0.52 0.54 0.53 0.56 0.60 0.64 0.67 0.65 0.66 0.68 0.69 0.73 0.75 0.80
0.13 0.14 0.13 0.12 0.14 0.15 0.14 0.13 0.12 0.12 0.13 0.14 0.16 0.17 0.20 0.24 0.28 0.31 0.28 0.26 0.25 0.24 0.26 0.28 0.34 0.32 0.32 0.40 0.49 0.52 0.56 0.59 0.58 0.58 0.62 0.70 0.69 0.63 0.66 0.69 0.73 0.77 0.77 0.79
0.12 0.13 0.14 0.13 0.13 0.14 0.15 0.13 0.12 0.12 0.14 0.15 0.17 0.18 0.19 0.22 0.27 0.31 0.31 0.29 0.29 0.32 0.33 0.36 0.36 0.35 0.39 0.49 0.60 0.59 0.58 0.59 0.61 0.64 0.67 0.68 0.68 0.68 0.69 0.71 0.78 0.84 0.83 0.81
0.15 0.16 0.17 0.16 0.15 0.13 0.14 0.14 0.14 0.15 0.17 0.19 0.23 0.25 0.26 0.27 0.29 0.33 0.34 0.33 0.32 0.35 0.38 0.40 0.41 0.46 0.54 0.62 0.64 0.58 0.58 0.59 0.62 0.69 0.73 0.72 0.73 0.73 0.73 0.75 0.80 0.85 0.86 0.84
0.19 0.21 0.21 0.20 0.19 0.18 0.17 0.18 0.19 0.20 0.20 0.22 0.25 0.29 0.31 0.32 0.34 0.35 0.36 0.39 0.41 0.45 0.42 0.38 0.42 0.54 0.67 0.67 0.59 0.56 0.57 0.59 0.64 0.72 0.78 0.78 0.79 0.80 0.77 0.79 0.85 0.86 0.84 0.84
0.23 0.24 0.25 0.26 0.27 0.26 0.24 0.25 0.26 0.27 0.29 0.30 0.33 0.35 0.37 0.39 0.41 0.43 0.42 0.40 0.42 0.45 0.43 0.41 0.46 0.57 0.65 0.59 0.54 0.55 0.56 0.60 0.66 0.75 0.80 0.82 0.84 0.85 0.85 0.86 0.89 0.91 0.90 0.86
0.26 0.28 0.30 0.31 0.31 0.30 0.29 0.30 0.30 0.32 0.35 0.37 0.39 0.41 0.42 0.42 0.41 0.43 0.46 0.45 0.46 0.46 0.45 0.47 0.51 0.57 0.61 0.56 0.53 0.56 0.59 0.64 0.73 0.81 0.85 0.86 0.88 0.87 0.89 0.94 0.98 0.95 0.89 0.84
0.31 0.32 0.32 0.32 0.34 0.35 0.34 0.31 0.30 0.31 0.32 0.34 0.36 0.37 0.39 0.44 0.50 0.50 0.46 0.45 0.46 0.47 0.46 0.49 0.53 0.57 0.57 0.55 0.55 0.59 0.64 0.72 0.86 0.98 0.99 0.95 0.91 0.91 0.91 0.96 1.01 0.98 0.92 0.87
0.38 0.39 0.39 0.41 0.42 0.41 0.40 0.38 0.37 0.36 0.36 0.36 0.35 0.36 0.39 0.44 0.50 0.53 0.50 0.47 0.48 0.50 0.50 0.53 0.55 0.57 0.56 0.57 0.59 0.64 0.69 0.77 0.89 0.97 0.94 0.90 0.90 0.92 0.94 0.96 0.96 0.96 0.94 0.90
0.42 0.41 0.41 0.42 0.43 0.44 0.46 0.47 0.47 0.48 0.49 0.48 0.45 0.42 0.44 0.48 0.51 0.52 0.49 0.48 0.49 0.50 0.52 0.56 0.58 0.58 0.58 0.61 0.66 0.69 0.72 0.76 0.89 0.99 0.98 0.94 0.93 0.94 0.93 0.94 0.95 0.97 0.97 0.94

GEFSNGP_prec_meanprecacc_246.txt.gz
Total_Precipitation_Accumulation
0.39 0.37 0.44 0.49 0.40 0.41 0.58 0.60 0.52 0.31 0.27 0.31 0.24 0.19 0.18 0.15 0.13 0.14 0.17 0.17 0.15 0.16 0.18 0.21 0.27 0.31 0.31 0.33 0.38 0.47 0.62 0.72 0.78 0.84 0.94 1.00 1.03 1.06 1.10 1.24 1.33 1.34 1.37 1.39
0.35 0.23 0.29 0.34 0.26 0.26 0.30 0.29 0.31 0.27 0.31 0.31 0.25 0.18 0.17 0.16 0.15 0.16 0.18 0.17 0.16 0.17 0.20 0.22 0.26 0.29 0.28 0.30 0.36 0.44 0.60 0.67 0.74 0.88 0.99 1.11 1.14 1.19 1.21 1.26 1.35 1.37 1.35 1.37
0.59 0.28 0.45 0.54 0.31 0.26 0.27 0.26 0.27 0.33 0.35 0.28 0.25 0.21 0.19 0.17 0.17 0.16 0.15 0.15 0.15 0.18 0.22 0.24 0.26 0.27 0.27 0.29 0.33 0.39 0.51 0.62 0.69 0.82 0.95 1.05 1.08 1.12 1.16 1.10 1.09 1.19 1.26 1.21
0.89 0.66 0.94 0.49 0.24 0.21 0.24 0.27 0.27 0.29 0.29 0.26 0.27 0.25 0.21 0.18 0.17 0.15 0.14 0.15 0.15 0.17 0.19 0.21 0.25 0.27 0.27 0.27 0.30 0.38 0.46 0.59 0.62 0.71 0.86 0.92 0.98 1.03 1.04 0.98 0.95 1.06 1.09 1.01
1.23 0.93 0.55 0.26 0.20 0.26 0.32 0.39 0.30 0.26 0.26 0.24 0.23 0.25 0.28 0.24 0.18 0.16 0.14 0.14 0.15 0.15 0.16 0.17 0.21 0.25 0.26 0.27 0.29 0.34 0.41 0.50 0.56 0.64 0.79 0.81 0.87 0.97 0.96 0.97 0.94 0.92 0.92 0.87
1.36 1.03 0.54 0.28 0.16 0.19 0.29 0.49 0.29 0.23 0.26 0.27 0.25 0.39 0.39 0.31 0.23 0.19 0.15 0.14 0.15 0.15 0.14 0.16 0.18 0.20 0.21 0.23 0.26 0.33 0.40 0.46 0.50 0.54 0.68 0.70 0.71 0.78 0.82 0.84 0.87 0.88 0.85 0.80
1.11 0.87 0.42 0.23 0.17 0.21 0.53 0.63 0.29 0.23 0.25 0.26 0.31 0.40 0.35 0.29 0.26 0.21 0.18 0.18 0.17 0.17 0.17 0.17 0.18 0.20 0.20 0.20 0.23 0.28 0.34 0.40 0.45 0.49 0.56 0.59 0.62 0.65 0.70 0.75 0.79 0.83 0.84 0.77
0.82 0.90 0.51 0.24 0.25 0.45 0.55 0.32 0.24 0.23 0.23 0.24 0.23 0.21 0.21 0.24 0.25 0.22 0.21 0.21 0.19 0.19 0.19 0.19 0.19 0.19 0.18 0.19 0.22 0.25 0.32 0.38 0.42 0.47 0.50 0.53 0.57 0.63 0.64 0.72 0.82 0.84 0.82 0.80
0.61 0.56 0.40 0.29 0.33 0.36 0.27 0.22 0.20 0.22 0.23 0.23 0.22 0.21 0.21 0.21 0.21 0.21 0.21 0.21 0.20 0.21 0.22 0.22 0.20 0.20 0.18 0.18 0.21 0.26 0.32 0.36 0.43 0.46 0.45 0.52 0.59 0.66 0.69 0.74 0.83 0.85 0.81 0.79
0.36 0.29 0.24 0.24 0.24 0.23 0.21 0.18 0.17 0.18 0.22 0.21 0.21 0.20 0.20 0.19 0.20 0.22 0.21 0.19 0.18 0.19 0.22 0.23 0.21 0.20 0.18 0.18 0.21 0.26 0.31 0.35 0.41 0.48 0.49 0.49 0.56 0.64 0.69 0.74 0.87 0.92 0.89 0.85
0.30 0.22 0.18 0.17 0.17 0.18 0.18 0.15 0.14 0.16 0.18 0.17 0.17 0.18 0.18 0.21 0.21 0.22 0.22 0.19 0.18 0.18 0.20 0.21 0.20 0.18 0.17 0.18 0.23 0.27 0.30 0.34 0.40 0.50 0.54 0.51 0.53 0.59 0.66 0.69 0.89 1.06 0.98 0.98
0.26 0.17 0.18 0.16 0.13 0.12 0.14 0.14 0.13 0.15 0.17 0.16 0.15 0.18 0.18 0.20 0.21 0.20 0.20 0.20 0.19 0.17 0.18 0.19 0.18 0.17 0.18 0.19 0.24 0.31 0.35 0.38 0.42 0.51 0.54 0.53 0.53 0.57 0.65 0.68 0.75 0.79 0.86 0.95
0.19 0.14 0.13 0.11 0.09 0.09 0.12 0.13 0.12 0.13 0.17 0.18 0.15 0.16 0.19 0.21 0.21 0.20 0.19 0.19 0.20 0.19 0.18 0.17 0.16 0.17 0.19 0.21 0.25 0.32 0.39 0.43 0.47 0.52 0.53 0.54 0.52 0.55 0.61 0.60 0.62 0.66 0.72 0.81
0.14 0.13 0.13 0.09 0.08 0.08 0.10 0.11 0.11 0.10 0.11 0.15 0.17 0.16 0.19 0.21 0.20 0.20 0.20 0.19 0.19 0.19 0.18 0.17 0.16 0.17 0.20 0.24 0.28 0.34 0.39 0.46 0.51 0.52 0.53 0.52 0.50 0.51 0.57 0.62 0.68 0.71 0.76 0.82
0.13 0.13 0.14 0.10 0.07 0.07 0.08 0.09 0.11 0.11 0.11 0.12 0.14 0.17 0.19 0.22 0.21 0.19 0.19 0.18 0.17 0.17 0.17 0.18 0.18 0.19 0.21 0.25 0.30 0.35 0.43 0.47 0.51 0.53 0.52 0.49 0.48 0.50 0.52 0.57 0.66 0.76 0.82 0.89
0.14 0.11 0.10 0.09 0.08 0.08 0.09 0.10 0.13 0.13 0.14 0.15 0.14 0.16 0.19 0.22 0.23 0.21 0.20 0.19 0.19 0.18 0.19 0.20 0.20 0.21 0.23 0.27 0.32 0.39 0.46 0.56 0.60 0.57 0.55 0.51 0.50 0.53 0.55 0.60 0.66 0.73 0.83 0.89
0.19 0.15 0.12 0.11 0.10 0.10 0.12 0.14 0.16 0.15 0.15 0.16 0.16 0.16 0.18 0.21 0.23 0.22 0.21 0.21 0.21 0.21 0.20 0.21 0.24 0.24 0.25 0.30 0.37 0.46 0.51 0.54 0.61 0.60 0.58 0.57 0.59 0.60 0.61 0.65 0.71 0.73 0.77 0.87
0.19 0.18 0.16 0.16 0.15 0.15 0.13 0.13 0.14 0.15 0.16 0.17 0.17 0.18 0.20 0.24 0.27 0.28 0.26 0.25 0.24 0.22 0.22 0.24 0.28 0.29 0.28 0.34 0.42 0.49 0.54 0.56 0.55 0.57 0.62 0.66 0.69 0.67 0.68 0.70 0.72 0.76 0.78 0.83
0.14 0.14 0.14 0.13 0.15 0.16 0.15 0.14 0.14 0.14 0.15 0.17 0.18 0.19 0.22 0.26 0.31 0.33 0.30 0.28 0.27 0.26 0.28 0.30 0.36 0.34 0.35 0.42 0.51 0.53 0.58 0.60 0.59 0.60 0.64 0.71 0.71 0.65 0.68 0.71 0.76 0.80 0.80 0.82
0.13 0.14 0.15 0.14 0.14 0.15 0.16 0.14 0.14 0.14 0.15 0.17 0.19 0.20 0.21 0.25 0.30 0.33 0.32 0.31 0.31 0.34 0.35 0.38 0.38 0.37 0.42 0.50 0.61 0.60 0.60 0.60 0.62 0.66 0.68 0.69 0.70 0.69 0.70 0.73 0.80 0.86 0.86 0.84
0.16 0.17 0.17 0.17 0.16 0.14 0.15 0.16 0.16 0.17 0.18 0.20 0.24 0.27 0.28 0.29 0.32 0.35 0.36 0.34 0.34 0.37 0.39 0.41 0.42 0.47 0.55 0.64 0.66 0.60 0.59 0.61 0.64 0.71 0.75 0.74 0.76 0.75 0.75 0.77 0.82 0.87 0.88 0.86
0.20 0.21 0.21 0.21 0.20 0.18 0.18 0.19 0.20 0.21 0.21 0.23 0.27 0.31 0.33 0.34 0.36 0.37 0.37 0.40 0.43 0.46 0.43 0.39 0.43 0.55 0.68 0.68 0.60 0.58 0.58 0.61 0.66 0.74 0.80 0.80 0.81 0.82 0.79 0.80 0.87 0.88 0.86 0.86
0.24 0.25 0.26 0.27 0.28 0.27 0.25 0.26 0.27 0.28 0.30 0.31 0.34 0.36 0.38 0.41 0.43 0.45 0.43 0.42 0.44 0.46 0.44 0.42 0.47 0.59 0.66 0.60 0.55 0.56 0.57 0.61 0.68 0.76 0.81 0.84 0.86 0.87 0.87 0.87 0.91 0.93 0.91 0.88
0.27 0.28 0.30 0.32 0.32 0.30 0.30 0.30 0.31 0.33 0.36 0.38 0.40 0.42 0.43 0.43 0.43 0.44 0.47 0.46 0.47 0.48 0.46 0.48 0.52 0.58 0.62 0.57 0.54 0.57 0.60 0.65 0.74 0.82 0.86 0.88 0.89 0.89 0.91 0.96 1.00 0.96 0.90 0.85
0.32 0.32 0.32 0.33 0.35 0.35 0.35 0.32 0.30 0.32 0.33 0.35 0.37 0.38 0.40 0.45 0.52 0.52 0.48 0.46 0.48 0.48 0.47 0.50 0.53 0.58 0.57 0.55 0.55 0.60 0.65 0.73 0.87 1.00 1.01 0.97 0.93 0.93 0.93 0.97 1.02 0.99 0.93 0.88
0.38 0.39 0.40 0.41 0.42 0.42 0.41 0.38 0.37 0.37 0.37 0.37 0.36 0.37 0.40 0.45 0.51 0.54 0.51 0.49 0.49 0.51 0.51 0.54 0.55 0.57 0.57 0.57 0.60 0.65 0.70 0.78 0.91 0.98 0.96 0.92 0.92 0.94 0.95 0.97 0.98 0.97 0.95 0.92
0.43 0.42 0.41 0.42 0.43 0.44 0.47 0.48 0.48 0.48 0.49 0.49 0.46 0.43 0.44 0.49 0.52 0.53 0.50 0.49 0.50 0.51 0.53 0.57 0.59 0.58 0.59 0.62 0.67 0.71 0.73 0.78 0.90 1.01 0.99 0.95 0.94 0.95 0.94 0.95 0.97 0.98 0.98 0.95

GEFSNGP_prec_meanprecacc_252.txt.gz
Total_Precipitation_Accumulation
0.41 0.39 0.45 0.50 0.42 0.43 0.59 0.62 0.54 0.33 0.30 0.34 0.26 0.21 0.19 0.16 0.13 0.14 0.18 0.17 0.16 0.17 0.18 0.21 0.27 0.31 0.31 0.33 0.39 0.48 0.63 0.73 0.78 0.84 0.94 1.01 1.04 1.06 1.11 1.24 1.33 1.35 1.38 1.40
0.37 0.25 0.31 0.36 0.28 0.28 0.31 0.31 0.33 0.28 0.33 0.34 0.27 0.20 0.19 0.17 0.16 0.16 0.19 0.17 0.16 0.17 0.20 0.23 0.26 0.29 0.28 0.30 0.36 0.45 0.60 0.67 0.74 0.88 0.99 1.12 1.15 1.20 1.21 1.27 1.36 1.37 1.35 1.37
0.61 0.29 0.47 0.57 0.34 0.28 0.29 0.28 0.28 0.34 0.37 0.31 0.28 0.24 0.21 0.19 0.18 0.17 0.16 0.16 0.16 0.18 0.22 0.24 0.26 0.27 0.27 0.29 0.33 0.39 0.52 0.63 0.69 0.83 0.95 1.05 1.09 1.13 1.16 1.11 1.09 1.19 1.26 1.22
0.91 0.69 0.98 0.52 0.26 0.23 0.26 0.30 0.30 0.31 0.31 0.29 0.30 0.28 0.24 0.20 0.19 0.16 0.15 0.15 0.16 0.17 0.19 0.21 0.25 0.27 0.27 0.27 0.30 0.38 0.46 0.59 0.62 0.72 0.86 0.92 0.99 1.03 1.05 0.98 0.96 1.06 1.09 1.01
1.26 0.96 0.58 0.28 0.21 0.28 0.33 0.42 0.33 0.28 0.27 0.26 0.25 0.27 0.31 0.26 0.19 0.17 0.15 0.15 0.15 0.16 0.16 0.17 0.22 0.25 0.26 0.27 0.29 0.34 0.41 0.51 0.56 0.64 0.80 0.81 0.87 0.98 0.97 0.98 0.96 0.94 0.93 0.88
1.39 1.06 0.57 0.30 0.17 0.20 0.32 0.52 0.31 0.25 0.27 0.28 0.27 0.42 0.41 0.33 0.25 0.20 0.16 0.15 0.16 0.15 0.14 0.16 0.18 0.20 0.22 0.23 0.26 0.33 0.40 0.47 0.50 0.55 0.69 0.70 0.72 0.79 0.83 0.86 0.88 0.89 0.87 0.81
1.14 0.89 0.44 0.25 0.19 0.22 0.56 0.67 0.31 0.25 0.26 0.28 0.33 0.42 0.39 0.32 0.27 0.22 0.20 0.19 0.17 0.17 0.17 0.17 0.18 0.20 0.20 0.20 0.23 0.28 0.35 0.40 0.45 0.50 0.57 0.59 0.63 0.66 0.71 0.76 0.80 0.85 0.85 0.78
0.84 0.92 0.53 0.26 0.27 0.47 0.58 0.34 0.25 0.25 0.24 0.25 0.25 0.23 0.24 0.26 0.26 0.23 0.23 0.23 0.21 0.20 0.19 0.19 0.19 0.19 0.18 0.19 0.22 0.25 0.32 0.38 0.42 0.47 0.50 0.53 0.58 0.63 0.65 0.73 0.83 0.86 0.83 0.81
0.62 0.58 0.42 0.31 0.36 0.38 0.29 0.24 0.21 0.23 0.24 0.24 0.24 0.23 0.23 0.23 0.23 0.23 0.23 0.23 0.22 0.22 0.23 0.22 0.21 0.20 0.18 0.18 0.21 0.26 0.32 0.37 0.43 0.47 0.45 0.53 0.59 0.66 0.69 0.75 0.84 0.86 0.82 0.80
0.38 0.31 0.26 0.26 0.25 0.25 0.22 0.20 0.19 0.20 0.24 0.22 0.23 0.21 0.22 0.21 0.22 0.24 0.23 0.22 0.20 0.21 0.24 0.24 0.22 0.21 0.19 0.18 0.22 0.26 0.32 0.35 0.41 0.49 0.49 0.50 0.56 0.65 0.70 0.74 0.88 0.94 0.90 0.87
0.32 0.23 0.19 0.18 0.19 0.20 0.20 0.17 0.15 0.17 0.19 0.19 0.19 0.19 0.20 0.22 0.23 0.24 0.24 0.23 0.20 0.20 0.22 0.23 0.22 0.19 0.17 0.19 0.24 0.28 0.31 0.34 0.40 0.50 0.54 0.51 0.54 0.60 0.67 0.70 0.91 1.08 1.01 1.01
0.27 0.18 0.19 0.18 0.15 0.14 0.15 0.16 0.15 0.17 0.19 0.18 0.17 0.20 0.20 0.22 0.23 0.23 0.22 0.23 0.22 0.20 0.20 0.20 0.19 0.18 0.19 0.20 0.25 0.32 0.36 0.39 0.43 0.51 0.54 0.53 0.54 0.58 0.67 0.70 0.77 0.81 0.89 0.98
0.20 0.15 0.14 0.12 0.10 0.10 0.13 0.15 0.13 0.15 0.19 0.20 0.17 0.18 0.21 0.23 0.24 0.23 0.22 0.22 0.23 0.21 0.20 0.18 0.17 0.18 0.20 0.22 0.26 0.33 0.40 0.44 0.48 0.52 0.54 0.55 0.53 0.56 0.63 0.62 0.64 0.68 0.75 0.83
0.14 0.14 0.14 0.10 0.09 0.09 0.11 0.12 0.12 0.11 0.13 0.16 0.18 0.18 0.21 0.23 0.23 0.22 0.22 0.22 0.21 0.21 0.20 0.18 0.17 0.18 0.21 0.25 0.29 0.35 0.41 0.47 0.52 0.53 0.54 0.54 0.52 0.53 0.59 0.64 0.70 0.73 0.78 0.84
0.13 0.13 0.14 0.11 0.08 0.08 0.09 0.10 0.12 0.13 0.12 0.13 0.16 0.19 0.21 0.23 0.23 0.21 0.21 0.21 0.19 0.19 0.20 0.20 0.20 0.21 0.22 0.27 0.31 0.37 0.44 0.48 0.53 0.54 0.54 0.50 0.50 0.52 0.54 0.58 0.66 0.76 0.83 0.90
0.15 0.12 0.10 0.09 0.09 0.09 0.10 0.11 0.13 0.14 0.15 0.16 0.16 0.18 0.21 0.24 0.24 0.23 0.22 0.22 0.22 0.21 0.22 0.23 0.23 0.24 0.25 0.29 0.34 0.40 0.48 0.57 0.62 0.59 0.56 0.53 0.52 0.55 0.57 0.60 0.66 0.74 0.83 0.89
0.20 0.16 0.13 0.12 0.11 0.11 0.12 0.14 0.16 0.16 0.16 0.17 0.18 0.18 0.20 0.23 0.25 0.24 0.24 0.23 0.24 0.24 0.23 0.24 0.26 0.27 0.27 0.32 0.39 0.48 0.53 0.57 0.63 0.62 0.60 0.59 0.61 0.61 0.62 0.67 0.72 0.74 0.78 0.88
0.20 0.19 0.17 0.16 0.16 0.15 0.14 0.14 0.15 0.16 0.17 0.18 0.18 0.19 0.21 0.25 0.29 0.29 0.28 0.27 0.26 0.24 0.24 0.26 0.30 0.31 0.31 0.36 0.44 0.51 0.57 0.58 0.57 0.59 0.64 0.67 0.70 0.69 0.69 0.71 0.73 0.77 0.79 0.84
0.15 0.15 0.14 0.14 0.15 0.16 0.15 0.15 0.15 0.15 0.16 0.18 0.19 0.20 0.23 0.28 0.32 0.34 0.32 0.30 0.29 0.28 0.30 0.32 0.38 0.36 0.37 0.44 0.53 0.55 0.60 0.62 0.61 0.61 0.65 0.73 0.72 0.66 0.69 0.73 0.77 0.81 0.82 0.83
0.13 0.14 0.15 0.14 0.14 0.16 0.16 0.15 0.15 0.15 0.16 0.18 0.20 0.21 0.22 0.26 0.31 0.35 0.34 0.32 0.33 0.36 0.37 0.40 0.39 0.38 0.43 0.51 0.62 0.62 0.61 0.62 0.64 0.67 0.70 0.70 0.71 0.70 0.71 0.74 0.81 0.87 0.87 0.86
0.16 0.17 0.17 0.17 0.16 0.15 0.16 0.17 0.17 0.18 0.19 0.21 0.25 0.28 0.29 0.30 0.33 0.36 0.37 0.36 0.36 0.39 0.40 0.43 0.43 0.49 0.56 0.65 0.67 0.61 0.60 0.62 0.66 0.72 0.76 0.75 0.77 0.76 0.76 0.78 0.83 0.88 0.90 0.88
0.20 0.22 0.22 0.21 0.20 0.19 0.18 0.20 0.21 0.22 0.22 0.24 0.27 0.31 0.34 0.35 0.37 0.38 0.39 0.42 0.44 0.48 0.44 0.41 0.45 0.57 0.70 0.70 0.61 0.59 0.59 0.62 0.67 0.75 0.81 0.81 0.82 0.83 0.80 0.81 0.88 0.89 0.87 0.87
0.24 0.25 0.26 0.27 0.28 0.28 0.25 0.26 0.28 0.28 0.30 0.32 0.34 0.37 0.39 0.41 0.44 0.45 0.44 0.43 0.45 0.48 0.46 0.44 0.49 0.61 0.68 0.62 0.57 0.57 0.58 0.62 0.69 0.78 0.82 0.85 0.87 0.88 0.88 0.89 0.92 0.94 0.93 0.89
0.27 0.29 0.31 0.32 0.32 0.31 0.31 0.31 0.32 0.34 0.37 0.39 0.41 0.43 0.44 0.44 0.43 0.45 0.47 0.47 0.48 0.49 0.47 0.49 0.53 0.60 0.63 0.58 0.55 0.58 0.61 0.66 0.75 0.83 0.87 0.89 0.91 0.90 0.92 0.97 1.01 0.97 0.92 0.87
0.32 0.33 0.33 0.33 0.35 0.36 0.35 0.33 0.31 0.32 0.34 0.36 0.38 0.39 0.41 0.46 0.52 0.52 0.48 0.47 0.48 0.49 0.48 0.51 0.55 0.59 0.58 0.56 0.57 0.61 0.66 0.74 0.89 1.01 1.02 0.99 0.95 0.94 0.94 0.98 1.03 1.00 0.94 0.89
0.39 0.40 0.40 0.42 0.43 0.43 0.41 0.39 0.38 0.38 0.38 0.38 0.37 0.38 0.40 0.45 0.52 0.54 0.52 0.49 0.50 0.52 0.53 0.55 0.57 0.59 0.58 0.59 0.61 0.66 0.72 0.79 0.92 1.00 0.97 0.94 0.93 0.95 0.96 0.98 0.99 0.98 0.96 0.92
0.44 0.42 0.42 0.43 0.44 0.45 0.47 0.49 0.49 0.49 0.50 0.50 0.47 0.44 0.45 0.49 0.53 0.53 0.51 0.50 0.51 0.52 0.55 0.59 0.60 0.60 0.61 0.63 0.68 0.72 0.75 0.79 0.92 1.02 1.01 0.97 0.96 0.96 0.95 0.97 0.98 0.99 0.99 0.96

GEFSNGP_prec_meanprecacc_258.txt.gz
Total_Precipitation_Accumulation
0.42 0.39 0.47 0.53 0.45 0.47 0.63 0.65 0.57 0.35 0.31 0.35 0.28 0.22 0.20 0.17 0.14 0.15 0.19 0.17 0.16 0.17 0.19 0.22 0.27 0.31 0.32 0.34 0.40 0.50 0.64 0.74 0.81 0.87 0.96 1.03 1.05 1.08 1.12 1.25 1.34 1.36 1.40 1.42
0.38 0.26 0.32 0.38 0.30 0.31 0.35 0.33 0.34 0.29 0.35 0.35 0.28 0.21 0.20 0.18 0.17 0.17 0.20 0.18 0.17 0.18 0.20 0.23 0.26 0.30 0.29 0.30 0.37 0.46 0.62 0.69 0.76 0.90 1.01 1.13 1.16 1.21 1.22 1.28 1.37 1.38 1.36 1.38
0.63 0.30 0.48 0.59 0.36 0.31 0.32 0.31 0.31 0.36 0.39 0.32 0.29 0.25 0.23 0.20 0.19 0.19 0.17 0.18 0.17 0.19 0.23 0.25 0.26 0.27 0.28 0.30 0.34 0.40 0.53 0.64 0.71 0.85 0.97 1.06 1.09 1.13 1.17 1.12 1.11 1.20 1.27 1.22
0.93 0.70 1.00 0.54 0.28 0.26 0.28 0.32 0.32 0.33 0.33 0.31 0.32 0.30 0.26 0.21 0.20 0.17 0.16 0.17 0.17 0.18 0.19 0.22 0.25 0.27 0.27 0.28 0.32 0.39 0.47 0.60 0.64 0.74 0.87 0.93 0.99 1.04 1.05 0.99 0.97 1.08 1.11 1.03
1.27 0.97 0.60 0.29 0.22 0.30 0.36 0.44 0.35 0.30 0.29 0.27 0.27 0.29 0.33 0.27 0.21 0.19 0.17 0.16 0.17 0.17 0.16 0.17 0.22 0.25 0.26 0.27 0.30 0.35 0.41 0.51 0.58 0.66 0.81 0.82 0.88 0.98 0.98 0.99 0.96 0.94 0.94 0.89
1.40 1.07 0.58 0.30 0.17 0.21 0.33 0.54 0.33 0.26 0.29 0.31 0.29 0.44 0.44 0.35 0.26 0.22 0.18 0.16 0.17 0.17 0.15 0.16 0.18 0.20 0.22 0.23 0.26 0.33 0.40 0.47 0.51 0.57 0.70 0.71 0.72 0.79 0.84 0.86 0.89 0.90 0.87 0.82
1.15 0.90 0.44 0.26 0.19 0.22 0.57 0.68 0.33 0.27 0.29 0.30 0.36 0.45 0.41 0.34 0.29 0.24 0.22 0.21 0.19 0.18 0.18 0.18 0.19 0.20 0.21 0.21 0.23 0.29 0.35 0.40 0.46 0.51 0.57 0.60 0.64 0.67 0.72 0.76 0.81 0.85 0.85 0.79
0.85 0.93 0.54 0.26 0.28 0.48 0.59 0.35 0.27 0.27 0.26 0.28 0.27 0.26 0.27 0.28 0.28 0.25 0.25 0.25 0.22 0.22 0.21 0.20 0.20 0.20 0.18 0.20 0.23 0.26 0.32 0.38 0.43 0.48 0.50 0.54 0.58 0.64 0.66 0.74 0.83 0.86 0.84 0.82
0.64 0.60 0.44 0.32 0.37 0.40 0.30 0.26 0.23 0.25 0.26 0.26 0.26 0.25 0.25 0.25 0.25 0.24 0.25 0.25 0.24 0.24 0.25 0.23 0.22 0.21 0.19 0.19 0.22 0.27 0.33 0.37 0.43 0.47 0.45 0.53 0.60 0.67 0.70 0.76 0.85 0.87 0.83 0.81
0.39 0.32 0.27 0.27 0.27 0.26 0.24 0.22 0.20 0.21 0.26 0.25 0.25 0.24 0.25 0.23 0.24 0.25 0.24 0.23 0.21 0.23 0.25 0.26 0.24 0.22 0.20 0.19 0.23 0.27 0.32 0.36 0.42 0.49 0.50 0.50 0.57 0.65 0.70 0.75 0.89 0.94 0.91 0.88
0.33 0.24 0.21 0.20 0.20 0.22 0.22 0.18 0.17 0.19 0.21 0.21 0.21 0.22 0.22 0.25 0.25 0.25 0.26 0.24 0.22 0.22 0.23 0.24 0.23 0.21 0.19 0.20 0.25 0.29 0.32 0.35 0.41 0.51 0.55 0.52 0.54 0.60 0.67 0.70 0.91 1.08 1.01 1.01
0.29 0.20 0.21 0.19 0.16 0.15 0.17 0.17 0.16 0.19 0.21 0.20 0.19 0.22 0.22 0.24 0.25 0.24 0.24 0.24 0.23 0.21 0.22 0.22 0.20 0.19 0.20 0.21 0.26 0.33 0.37 0.40 0.44 0.52 0.55 0.54 0.54 0.58 0.67 0.70 0.77 0.82 0.90 0.99
0.21 0.16 0.16 0.13 0.11 0.11 0.14 0.16 0.15 0.17 0.21 0.23 0.20 0.20 0.23 0.25 0.25 0.25 0.23 0.24 0.25 0.23 0.21 0.19 0.18 0.19 0.21 0.23 0.27 0.35 0.41 0.45 0.49 0.53 0.55 0.56 0.53 0.57 0.64 0.63 0.64 0.69 0.76 0.84
0.15 0.14 0.15 0.11 0.10 0.10 0.11 0.13 0.13 0.13 0.14 0.18 0.20 0.20 0.23 0.25 0.25 0.24 0.24 0.24 0.23 0.22 0.21 0.19 0.18 0.19 0.23 0.27 0.31 0.37 0.42 0.48 0.53 0.54 0.55 0.55 0.52 0.54 0.60 0.65 0.71 0.74 0.79 0.86
0.14 0.14 0.15 0.11 0.09 0.08 0.09 0.10 0.13 0.14 0.14 0.15 0.18 0.21 0.24 0.26 0.25 0.24 0.24 0.23 0.21 0.21 0.21 0.21 0.21 0.22 0.24 0.29 0.34 0.39 0.46 0.51 0.55 0.56 0.56 0.52 0.51 0.54 0.56 0.60 0.68 0.78 0.84 0.91
0.16 0.13 0.11 0.10 0.09 0.09 0.10 0.11 0.14 0.16 0.16 0.17 0.17 0.19 0.23 0.26 0.27 0.25 0.24 0.24 0.24 0.23 0.24 0.25 0.25 0.26 0.27 0.31 0.37 0.43 0.51 0.60 0.64 0.61 0.58 0.55 0.54 0.56 0.59 0.63 0.68 0.75 0.84 0.90
0.21 0.17 0.14 0.13 0.11 0.12 0.13 0.15 0.17 0.17 0.17 0.18 0.19 0.20 0.21 0.25 0.26 0.26 0.25 0.25 0.26 0.26 0.25 0.26 0.28 0.29 0.30 0.34 0.42 0.51 0.56 0.60 0.65 0.64 0.61 0.61 0.62 0.63 0.64 0.69 0.74 0.75 0.79 0.89
0.21 0.20 0.18 0.17 0.16 0.16 0.14 0.14 0.16 0.17 0.18 0.20 0.20 0.20 0.22 0.26 0.30 0.31 0.29 0.28 0.27 0.26 0.26 0.28 0.33 0.33 0.33 0.39 0.48 0.55 0.60 0.61 0.59 0.61 0.65 0.69 0.72 0.70 0.71 0.73 0.75 0.78 0.79 0.85
0.15 0.16 0.15 0.14 0.15 0.16 0.16 0.15 0.16 0.16 0.17 0.19 0.20 0.21 0.24 0.29 0.33 0.35 0.33 0.31 0.30 0.30 0.32 0.35 0.41 0.38 0.39 0.47 0.56 0.59 0.64 0.66 0.63 0.63 0.67 0.74 0.73 0.68 0.71 0.74 0.78 0.82 0.82 0.84
0.14 0.15 0.15 0.15 0.14 0.16 0.17 0.16 0.16 0.15 0.17 0.19 0.21 0.21 0.23 0.26 0.32 0.36 0.35 0.34 0.35 0.38 0.38 0.42 0.42 0.41 0.45 0.54 0.65 0.64 0.64 0.65 0.66 0.69 0.71 0.72 0.72 0.72 0.73 0.75 0.82 0.88 0.88 0.87
0.16 0.17 0.18 0.17 0.16 0.15 0.16 0.17 0.18 0.18 0.20 0.22 0.26 0.29 0.30 0.31 0.34 0.37 0.38 0.38 0.38 0.40 0.42 0.44 0.45 0.50 0.58 0.67 0.69 0.63 0.63 0.64 0.68 0.74 0.78 0.77 0.78 0.77 0.77 0.79 0.84 0.89 0.91 0.89
0.20 0.22 0.22 0.22 0.21 0.19 0.19 0.21 0.22 0.23 0.23 0.25 0.28 0.32 0.35 0.36 0.38 0.39 0.40 0.43 0.46 0.49 0.46 0.42 0.46 0.58 0.71 0.71 0.63 0.61 0.61 0.64 0.69 0.77 0.82 0.82 0.84 0.84 0.81 0.82 0.89 0.90 0.89 0.89
0.24 0.26 0.27 0.28 0.29 0.28 0.26 0.27 0.29 0.29 0.32 0.33 0.36 0.38 0.40 0.42 0.45 0.46 0.45 0.44 0.46 0.49 0.47 0.45 0.50 0.62 0.69 0.63 0.58 0.58 0.59 0.63 0.70 0.79 0.84 0.86 0.89 0.89 0.89 0.90 0.93 0.95 0.94 0.90
0.28 0.29 0.31 0.33 0.33 0.31 0.31 0.31 0.32 0.35 0.38 0.40 0.42 0.44 0.45 0.45 0.44 0.46 0.48 0.48 0.49 0.50 0.48 0.51 0.54 0.61 0.65 0.59 0.56 0.59 0.62 0.67 0.76 0.84 0.88 0.90 0.92 0.91 0.93 0.98 1.02 0.98 0.93 0.88
0.32 0.33 0.33 0.34 0.36 0.36 0.36 0.33 0.32 0.33 0.35 0.38 0.39 0.40 0.42 0.47 0.53 0.53 0.49 0.48 0.49 0.50 0.49 0.51 0.55 0.60 0.59 0.57 0.57 0.62 0.67 0.75 0.90 1.02 1.03 1.00 0.96 0.95 0.95 0.99 1.04 1.01 0.95 0.90
0.39 0.40 0.41 0.42 0.43 0.43 0.42 0.39 0.39 0.38 0.39 0.39 0.38 0.39 0.42 0.47 0.53 0.55 0.53 0.50 0.50 0.53 0.53 0.55 0.57 0.59 0.58 0.59 0.62 0.67 0.73 0.80 0.93 1.01 0.98 0.95 0.94 0.96 0.97 0.99 1.00 0.99 0.96 0.93
0.44 0.43 0.42 0.43 0.44 0.45 0.48 0.50 0.50 0.50 0.51 0.51 0.48 0.45 0.46 0.50 0.53 0.54 0.51 0.50 0.51 0.52 0.55 0.59 0.61 0.61 0.61 0.64 0.69 0.73 0.76 0.81 0.93 1.03 1.02 0.98 0.97 0.97 0.97 0.97 0.99 1.00 1.00 0.97